User: anonymous   Login
Location: Coupvray
(48.8929°N, 2.7967°E)
Time: 14:07:41
(UTC+00:00)
Language:

Cosmos 2173 Rocket - Orbit

View from above orbital plane
View from above orbital plane
View from above satellite
View from above satellite

Ground track
Ground track

The orbit data is extracted from the following two-line orbital elements,

1 21797U 91081B   20262.55083047 +.00000119 +00000-0 +10431-3 0  9992
2 21797 082.9498 258.8435 0037853 358.2667 119.3367 13.77494040447864
Epoch (UTC): 18 September 2020 13:13:11
Eccentricity: 0.0037853
inclination: 82.9498°
perigee height: 945 km
apogee height: 1000 km
right ascension of ascending node: 258.8435°
argument of perigee: 358.2667°
revolutions per day: 13.77494040
mean anomaly at epoch: 119.3367°
orbit number at epoch: 44786

The dashed part of the orbit path shows where the satellite is in the earth's shadow,  

DLR